This is the latest recevied weather packets stored in our database for station/object VK6DUG. If no packets are shown the sender has not sent any weather packets the latest 10 day(s).
| Time | Temp. | Humidity | Pressure | Rain* | Wind** | Luminosity | Snow |
|---|---|---|---|---|---|---|---|
| 1777663218 | 5.56° C | 91% | 1028.7 hPa | 0 mm | - | 0 W/m² | - |
| 1777662629 | 5.56° C | 91% | 1028.7 hPa | 0 mm | - | 0 W/m² | - |
| 1777662023 | 5.56° C | 91% | 1028.8 hPa | 0 mm | - | 0 W/m² | - |
| 1777661419 | 5.56° C | 91% | 1028.9 hPa | 0 mm | - | 0 W/m² | - |
| 1777660831 | 6.11° C | 91% | 1029 hPa | 0 mm | - | 0 W/m² | - |
| 1777660226 | 6.11° C | 91% | 1029 hPa | 0 mm | - | 0 W/m² | - |
| 1777659621 | 6.11° C | 90% | 1029 hPa | 0 mm | - | 0 W/m² | - |
| 1777659016 | 6.11° C | 90% | 1028.9 hPa | 0 mm | - | 0 W/m² | - |
| 1777658429 | 6.11° C | 90% | 1028.9 hPa | 0 mm | - | 0 W/m² | - |
| 1777657824 | 6.67° C | 90% | 1028.9 hPa | 0 mm | - | 0 W/m² | - |
| 1777657216 | 6.67° C | 90% | 1029.1 hPa | 0 mm | - | 0 W/m² | - |
| 1777656629 | 6.67° C | 89% | 1028.9 hPa | 0 mm | - | 0 W/m² | - |
| 1777656023 | 6.67° C | 89% | 1028.9 hPa | 0 mm | - | 0 W/m² | - |
| 1777655419 | 6.67° C | 89% | 1028.9 hPa | 0 mm | - | 0 W/m² | - |
| 1777654833 | 6.67° C | 89% | 1029 hPa | 0 mm | - | 0 W/m² | - |
| 1777654226 | 6.67° C | 89% | 1029 hPa | 0 mm | - | 0 W/m² | - |
| 1777653621 | 6.67° C | 89% | 1029 hPa | 0 mm | - | 0 W/m² | - |
| 1777653034 | 6.67° C | 89% | 1029 hPa | 0 mm | - | 0 W/m² | - |
| 1777652428 | 6.67° C | 88% | 1029.1 hPa | 0 mm | - | 0 W/m² | - |
| 1777651824 | 7.22° C | 88% | 1028.9 hPa | 0 mm | - | 0 W/m² | - |
| 1777651221 | 6.67° C | 87% | 1028.9 hPa | 0 mm | - | 0 W/m² | - |
| 1777650636 | 7.22° C | 87% | 1028.9 hPa | 0 mm | - | 0 W/m² | - |
| 1777650028 | 7.22° C | 86% | 1029 hPa | 0 mm | - | 0 W/m² | - |
| 1777649424 | 7.22° C | 86% | 1028.9 hPa | 0 mm | - | 0 W/m² | - |
| 1777648821 | 7.78° C | 85% | 1029 hPa | 0 mm | - | 0 W/m² | - |
* Rain latest hour (hover to see other rain measurements)
** Current wind speed in m/s (hover to see current wind gust speed)